Futenma Marine Corps Air Facility, Japan

7:45 PM JST on July 30, 2016 (GMT +0900)
Futenma Marine Corps Air Station

Weather History for ROTM - June, 2013

Change the Weather History Date:

Tuesday, June 25, 2013

  Actual Average (RODN) Record (RODN)
Temperature  
Mean Temperature 88 °F -  
Max Temperature 91 °F 86 °F 91 °F (1998)
Min Temperature 84 °F 76 °F 75 °F (2004)
Cooling Degree Days 22    
Growing Degree Days 38 (Base 50)    
Moisture  
Dew Point 77 °F    
Average Humidity 74    
Maximum Humidity 82    
Minimum Humidity 59    
Precipitation  
Precipitation 0.01 in - - ()
Sea Level Pressure  
Sea Level Pressure 29.80 in    
Wind  
Wind Speed 14 mph ()    
Max Wind Speed 28 mph    
Max Gust Speed 38 mph    
Visibility 6.2 miles    
Events Rain    
Averages and records for this station are not official NWS values.
T = Trace of Precipitation, MM = Missing Value Source: Averaged Metar Reports

Daily Weather History Graph

Daily Weather History Graph

Search for Another Location

Airport or City:

Trip Planner

Search our weather history database for the weather conditions in past years. The results will help you decide how hot, cold, wet, or windy it might be!

Date:

Astronomy

Jun. 25, 2013 Rise Set
Actual Time 5:38 AM JST 7:25 PM JST
Civil Twilight 5:11 AM JST 7:51 PM JST
Nautical Twilight 4:40 AM JST 8:22 PM JST
Astronomical Twilight 4:07 AM JST 8:55 PM JST
Moon 9:00 PM JST (6/25) 7:22 AM JST (6/25)
Length of Visible Light 14h 39m
Length of Day
13h 46m
Waning Gibbous, 96% of the Moon is Illuminated
Jun 25
Waning Gibbous
Jun 30
Last Quarter
Jul 8
New
Jul 16
First Quarter
Jul 23
Full

Hourly Weather History & Observations

Time (JST) Temp. Heat Index Dew Point Humidity Pressure Visibility Wind Dir Wind Speed Gust Speed Precip Events Conditions
12:58 AM 84.0 °F 94.8 °F 78.1 °F 82% 29.82 in 6.2 mi SW 13.8 mph - N/A   Mostly Cloudy
1:58 AM 84.0 °F 94.8 °F 78.1 °F 82% 29.81 in 6.2 mi SW 17.3 mph - N/A   Mostly Cloudy
2:58 AM 84.0 °F 94.8 °F 78.1 °F 82% 29.81 in 6.2 mi SW 12.7 mph - N/A   Scattered Clouds
3:58 AM 84.0 °F 94.8 °F 78.1 °F 82% 29.81 in 6.2 mi SSW 13.8 mph - N/A   Scattered Clouds
4:58 AM 84.0 °F 93.7 °F 77.0 °F 79% 29.84 in 6.2 mi South 15.0 mph 20.7 mph N/A   Scattered Clouds
5:58 AM 84.0 °F 94.8 °F 78.1 °F 82% 29.80 in 6.2 mi SSW 12.7 mph - N/A   Scattered Clouds
6:58 AM 84.9 °F 96.6 °F 78.1 °F 80% 29.80 in 6.2 mi SSW 16.1 mph - N/A   Scattered Clouds
7:58 AM 86.0 °F 90.7 °F 70.0 °F 59% 29.81 in 6.2 mi SSW 17.3 mph 20.7 mph N/A   Mostly Cloudy
8:58 AM 87.1 °F 99.8 °F 78.1 °F 74% 29.82 in 6.2 mi SSW 15.0 mph - N/A   Mostly Cloudy
9:58 AM 90.0 °F 104.5 °F 78.1 °F 68% 29.83 in 6.2 mi SSW 18.4 mph 26.5 mph N/A   Mostly Cloudy
10:58 AM 90.0 °F 104.5 °F 78.1 °F 68% 29.82 in 6.2 mi SW 19.6 mph 28.8 mph N/A   Mostly Cloudy
11:58 AM 90.0 °F 104.5 °F 78.1 °F 68% 29.81 in 6.2 mi SSW 19.6 mph 27.6 mph N/A   Mostly Cloudy
12:58 PM 91.0 °F 104.2 °F 77.0 °F 63% 29.79 in 6.2 mi SW 20.7 mph 32.2 mph N/A   Mostly Cloudy
1:58 PM 90.0 °F 102.5 °F 77.0 °F 65% 29.79 in 6.2 mi SW 18.4 mph 31.1 mph N/A   Mostly Cloudy
2:58 PM 90.0 °F 104.5 °F 78.1 °F 68% 29.78 in 6.2 mi SW 27.6 mph 38.0 mph 0.00 in   Mostly Cloudy
3:58 PM 89.1 °F 103.2 °F 78.1 °F 70% 29.77 in 6.2 mi SSW 17.3 mph 27.6 mph N/A   Overcast
4:58 PM 88.0 °F 100.2 °F 77.0 °F 70% 29.77 in 6.2 mi SW 20.7 mph 27.6 mph N/A   Overcast
5:58 PM 88.0 °F 101.3 °F 78.1 °F 72% 29.76 in 6.2 mi SW 12.7 mph 28.8 mph N/A   Mostly Cloudy
6:58 PM 87.1 °F 99.8 °F 78.1 °F 74% 29.77 in 6.2 mi SW 18.4 mph 26.5 mph N/A   Mostly Cloudy
7:58 PM 86.0 °F 98.3 °F 78.1 °F 77% 29.78 in 6.2 mi SSW 13.8 mph 24.2 mph N/A   Overcast
8:58 PM 86.0 °F 98.3 °F 78.1 °F 77% 29.78 in 6.2 mi SW 13.8 mph 25.3 mph N/A   Overcast
9:58 PM 86.0 °F 98.3 °F 78.1 °F 77% 29.78 in 5.6 mi SSW 15.0 mph 23.0 mph 0.00 in Rain Light Rain Showers
10:58 PM 84.9 °F 93.3 °F 75.0 °F 72% 29.78 in 6.2 mi SSW 15.0 mph 23.0 mph 0.01 in   Overcast
11:58 PM 84.9 °F 94.1 °F 75.9 °F 74% 29.78 in 6.2 mi SSW 12.7 mph 23.0 mph N/A   Overcast